{"data":{"norad_id":66226,"epoch":"2026-05-24T05:12:08.639424Z","epoch_age_seconds":143552,"freshness":"FRESH","line1":"1 66226U 25244W   26144.21676666  .00285219  00000+0  89805-2 0  9994","line2":"2 66226  53.1584 239.0524 0002587 323.7517  36.3309 15.31254274 33223","mean_motion":15.31254274,"eccentricity":0.0002587,"inclination_deg":53.1584,"raan_deg":239.0524,"arg_perigee_deg":323.7517,"mean_anomaly_deg":36.3309,"bstar":0.0089805,"rev_number":3322,"period_min":94.040553842072,"perigee_km":470.29685523551,"apogee_km":473.84115182173,"semimajor_km":6850.2060035286,"source":"CELESTRAK","updated_at":"2026-05-25T13:38:21.131009Z"}}